[ hide orbit diagram ]
For accurate long-term ephemerides, please instead use our Horizons system.This orbit viewer was implemented using two-body methods, and hence should not be used for determining accurate long-term trajectories (over several years or decades) or planetary encounter circumstances.
Orbital Elements at Epoch 2459000.5 (2020-May-31.0) TDB
Reference: JPL 6 (heliocentric ecliptic J2000)
Element | Value | Uncertainty (1-sigma) | Units |
e | .5379038235671616 | 2.4824e-05 | |
a | 70.32139806465273 | 0.0044208 | au |
q | 32.49524916708763 | 0.00047383 | au |
i | 29.47724225812682 | 4.6204e-05 | deg |
node | 346.274427772163 | 0.00012239 | deg |
peri | 284.5352579701519 | 0.0020016 | deg |
M | 348.7661562284902 | 0.001443 | deg |
tp | 2465721.835136541952 (2038-Oct-25.33513654) | 0.24941 | TDB |
period | 215392.050875024 589.71 | 20.311 0.05561 | d yr |
n | .001671370872497431 | 1.5761e-07 | deg/d |
Q | 108.1475469622178 | 0.0067987 | au |
|
| | Orbit Determination Parameters
Additional Information
|
[ show covariance matrix ]
Physical Parameter Table
Parameter |
Symbol |
Value |
Units |
Sigma |
Reference |
Notes |
absolute magnitude |
H |
4.05 |
|
n/a |
E2020R02 |
|
rotation period |
rot_per |
7.07 |
h |
n/a |
LCDB (Rev. 2020-October); Warner et al., 2009 |
Result based on less than full coverage, so that the period may be wrong by 30 percent or so. Published Reference List: [Benecchi, S.D.; Sheppard, S.S. (2013) Astron. J. 145, A124.] |
|
471143 Dziewanna | Discovered 2010 Mar. 13 by A. Udalski, S. S. Sheppard, M. Kubiak and C. A. Trujillo at Las Campanas. |
Dziewanna is a Slavic Goddess of the wild nature, forests and the hunt. Gold-haired, young and beautiful, she brings the spring and revitalizes the Earth. Wild yellow mullein flowers (Polish: dziewanna) are her symbol. Dried, they served as torches during her celebrations. |
NOTE: some special characters may not display properly (any characters within {} are an attempt to place the proper accent above a character) |
Reference: MPC batch dated 2018-09-25 | Last Updated: 2018-10-01 |
|
|